Location: Karaa?a�
(36.7158°N, 30.4165°E)
Time: 01:07:22
(UTC+00:00)

BREEZE-M DEB (TANK) - Pass Details

Date: 09 April 2020
Orbit: 282 x 20917 km, 49.4° (Epoch: 22 May)

Event Time Altitude Azimuth Distance (km) Brightness Sun altitude
Rises 17:29:43 0° 306° (NW) 6,300 9.3 -12.8°
Reaches altitude 10° 17:36:03 10° 298° (WNW) 3,397 7.8 -14.0°
Maximum altitude 17:41:24 25° 244° (WSW) 1,194 4.5 -15.0°
Drops below altitude 10° 17:43:45 10° 182° (S) 1,416 4.2 -15.4°
Enters shadow 17:43:48 10° 182° (S) 1,433 4.2 -15.4°
